Regional Weather Roundup
Issued by NWS Jackson, KY

Home | Current Version | Previous Version | Text Only | Print | Product List | Glossary Off
Versions: 1 2 3 4 5 6 7 8 9 10 11 12 13 14 15 16 17 18 19 20 21 22 23 24 25 26 27 28 29 30 31 32 33 34 35 36 37 38 39 40 41 42 43 44 45 46 47 48 49 50

000
ASUS43 KJKL 021810
RWRJKL

EAST KENTUCKY HOURLY WEATHER ROUNDUP
NATIONAL WEATHER SERVICE JACKSON KY
200 PM EDT SAT MAY 02 2015

NOTE: "FAIR" INDICATES FEW OR NO CLOUDS BELOW 12,000 FEET WITH
NO SIGNIFICANT WEATHER AND/OR OBSTRUCTIONS TO VISIBILITY.

* THESE REPORTS ARE NOT UNDER NWS QUALITY CONTROL AND MAY NOT
  REPORT WEATHER SUCH AS PRECIPITATION AND FOG.

KYZ079-080-083-085-087-088-110-112-115-119-120-021900
...EASTERN KENTUCKY...

CITY           SKY/WX    TMP DP  RH WIND       PRES   REMARKS
JACKSON        MOSUNNY   69  39  33 CALM      30.13F
6HR MIN TEMP:  50; 6HR MAX TEMP:  70;

LONDON         MOSUNNY   73  39  29 VRB5      30.13F
6HR MIN TEMP:  47; 6HR MAX TEMP:  73;

SOMERSET*      MOSUNNY   70  37  30 W5        30.14F
MONTICELLO*    SUNNY     75  42  30 N8        30.16F
6HR MIN TEMP:  46; 6HR MAX TEMP:  75;

MIDDLESBORO*   PTSUNNY   70  42  35 NE5       30.13F
6HR MIN TEMP:  42; 6HR MAX TEMP:  71;

HARLAN APT*    MOCLDY    68  32  26 W5        30.13F
HAZARD APT*    MOCLDY    70  41  35 CALM      30.13F
BLACK MTN*       N/A     57  37  47 NE2         N/A
PIKEVILLE APT* MOSUNNY   66  37  34 NW5       30.14F
BIG SANDY*     PTCLDY    68  42  39 S3        30.14F
6HR MIN TEMP:  49; 6HR MAX TEMP:  69;

MOREHEAD APT*  PTCLDY    70  37  30 VRB5      30.14F
$$

KYZ035-036-041-042-044-050-067-078-099-021900
...CENTRAL KENTUCKY...

CITY           SKY/WX    TMP DP  RH WIND       PRES   REMARKS
MT STERLING*   PTSUNNY   72  41  33 E3        30.14F
FLEMING/MASON* MOSUNNY   70  39  32 W3        30.13F
DANVILLE*      PTSUNNY   72  39  30 NW6       30.14F
RICHMOND*      PTSUNNY   72  39  30 NE6       30.13F
LEXINGTON      MOSUNNY   71  40  32 CALM      30.13F
6HR MIN TEMP:  48; 6HR MAX TEMP:  73;

FRANKFORT      PTSUNNY   73  42  32 SW6       30.11F
6HR MIN TEMP:  48; 6HR MAX TEMP:  73;

$$

KYZ091>093-OHZ055-061-077-WVZ005-015-034-035-042-021900
...SOUTHERN OHIO/WEST VIRGINIA...

CITY           SKY/WX    TMP DP  RH WIND       PRES   REMARKS
COVINGTON      MOSUNNY   72  44  36 VRB6      30.11F
COLUMBUS       PTSUNNY   72  43  35 W8G16     30.08F
DAYTON         PTSUNNY   74  42  31 VRB5      30.10F
WILMINGTON     PTSUNNY   69  39  33 N5        30.11F
HUNTINGTON     MOSUNNY   70  38  31 VRB3      30.11F
CHARLESTON     PTSUNNY   70  40  33 VRB3      30.11F
PINEVILLE*     MOSUNNY   68  38  33 MISG      30.16F
BECKLEY        PTSUNNY   65  34  31 NW13G20   30.13S
BLUEFIELD      PTSUNNY   64  34  32 NW8       30.13F
$$

VAZ002-007-008-TNZ017-027-036-066-071-021900
...SOUTHWEST VIRGINIA/EAST TENNESSEE...

CITY           SKY/WX    TMP DP  RH WIND       PRES   REMARKS
WISE*          PTSUNNY   64  32  29 N8        30.16F
JONESVILLE*    MOCLDY    70  39  32 CALM      30.14F
ABINGDON*      MOSUNNY   67  40  37 CALM      30.12F
BRISTOL        PTSUNNY   69  44  40 W8        30.12F
KNOXVILLE      MOSUNNY   72  42  34 VRB3      30.12F
OAK RIDGE      MOSUNNY   73  40  30 VRB3      30.13F
CROSSVILLE     MOSUNNY   70  39  32 VRB7      30.15F
NASHVILLE      PTSUNNY   74  44  34 SE6       30.13F
$$

...KEY TO REMARKS...
VSB - VISIBILITY IN MILES
WCI - WIND CHILL INDEX
HX  - HEAT INDEX

$$


USA.gov is the U.S. government's official web portal to all federal, state and local government web resources and services.